Simultaneous Nadir Overpasses (SNOs) Predictions

Prediction of SNOs between TERRA and METOP-C Satellite Orbit:

Table of predicted SNOs for the next 14.0 days since TLE Epoch: 4/3/2020
Index Date (TERRA) Time (TERRA) Lat,Lon (TERRA) SZA (TERRA ) Date (METOP-C) Time (METOP-C) Lat,Lon (METOP-C) SZA (METOP-C ) Distance(km) Time Diff (sec)
1 04/05/2020 09:34:09 81.28, 83.53 77.69 04/05/2020 09:33:07 81.29, 83.42 77.65 1.95 62
2 04/05/2020 10:23:35 -81.30,-108.53 102.28 04/05/2020 10:23:45 -81.30,-108.45 102.27 1.23 10
3 04/08/2020 05:08:21 81.29, 150.13 76.68 04/08/2020 05:07:29 81.29, 149.95 76.64 3.10 52
4 04/08/2020 05:57:48 -81.29, -42.27 103.34 04/08/2020 05:58:08 -81.30, -42.29 103.33 0.81 20
5 04/11/2020 00:42:34 81.30,-143.29 75.69 04/11/2020 00:41:51 81.30,-143.14 75.69 2.60 43
6 04/11/2020 01:32:01 -81.30, 24.32 104.33 04/11/2020 01:32:31 -81.30, 24.25 104.32 1.26 30
7 04/13/2020 20:16:47 81.31, -76.75 74.71 04/13/2020 20:16:14 81.30, -76.63 74.70 2.06 33
8 04/13/2020 21:06:14 -81.31, 90.89 105.31 04/13/2020 21:06:54 -81.30, 90.78 105.30 1.83 40
9 04/16/2020 15:51:00 81.29, -10.62 73.68 04/16/2020 15:50:37 81.30, -10.53 73.69 1.67 23




NCC Satellite Simultaneous Nadir Overpasses (SNOs) Prediction Service
